GSAT0204 (GALILEO 8)

Last updated on Oct. 24, 2020, 5:54 a.m. UTC

1 40545U 15017B   20296.38971293 -.00000090  00000-0  00000-0 0  9993
2 40545  56.5076  37.9334 0003570 192.4992 167.4985  1.70475205 34681
UTC
Height (km)
Latitude
Longitude
Inclination
Orbital Period
UTC large
Height (km)
Speed (km/s)
/
Latitude / Longitude
Inclination (degrees)
Orbital Period (minutes)
Azimuth
Elevation
Range (km)
Doppler Factor
iOS Compass Heading
iOS Angle

Next 30 passes for location: Hong Kong

Rise time Rise Azimuth (degrees) Set time Set Azimuth (degrees) Duration Max altitude (degrees)

No matching passes for this satellites